Simultaneous Nadir Overpasses (SNOs) Predictions

Prediction of SNOs between FY3D and TERRA Satellite Orbit:

Table of predicted SNOs for the next 14.0 days since TLE Epoch: 10/3/2020
Index Date (FY3D) Time (FY3D) Lat,Lon (FY3D) SZA (FY3D ) Date (TERRA) Time (TERRA) Lat,Lon (TERRA) SZA (TERRA ) Distance(km) Time Diff (sec)
1 10/03/2020 04:59:27 69.03, 104.54 73.08 10/03/2020 05:00:08 69.06, 104.57 73.11 3.19 41
2 10/03/2020 05:50:08 -68.94, -88.01 107.00 10/03/2020 05:49:38 -68.95, -87.95 107.00 2.69 30
3 10/05/2020 21:15:50 69.06,-139.58 74.14 10/05/2020 21:16:37 69.05,-139.56 74.13 1.29 47
4 10/05/2020 22:06:31 -68.97, 27.87 105.95 10/05/2020 22:06:07 -68.95, 27.93 105.97 3.35 24
5 10/05/2020 22:56:57 67.88,-163.40 73.01 10/05/2020 22:55:50 67.94,-165.64 73.03 94.12 67
6 10/08/2020 13:32:12 69.04, -23.64 75.15 10/08/2020 13:33:06 69.04, -23.70 75.15 2.44 54
7 10/08/2020 14:22:53 -68.94, 143.82 104.95 10/08/2020 14:22:36 -68.94, 143.80 104.95 0.96 17
8 10/08/2020 15:13:23 68.07, -47.73 74.23 10/08/2020 15:12:15 68.16, -49.51 74.27 74.69 68
9 10/11/2020 05:48:35 69.08, 92.23 76.19 10/11/2020 05:49:34 69.08, 92.23 76.21 0.94 59
10 10/11/2020 06:39:16 -68.97,-100.30 103.90 10/11/2020 06:39:04 -68.98,-100.26 103.89 2.17 12
11 10/11/2020 07:29:50 68.32, 67.87 75.49 10/11/2020 07:28:40 68.36, 66.61 75.49 51.81 70
12 10/13/2020 22:04:57 69.11,-151.90 77.23 10/13/2020 22:06:01 69.12,-151.84 77.25 2.54 64
13 10/13/2020 22:55:38 -69.00, 15.58 102.87 10/13/2020 22:55:32 -68.97, 15.60 102.90 3.31 6
14 10/13/2020 23:46:15 68.52,-176.47 76.68 10/13/2020 23:45:04 68.57,-177.26 76.71 32.57 71
15 10/16/2020 14:21:19 69.09, -35.96 78.21 10/16/2020 14:22:30 69.10, -35.99 78.21 1.33 71
16 10/16/2020 15:12:00 -68.97, 131.53 101.90 10/16/2020 15:12:00 -69.00, 131.52 101.88 3.16 0
17 10/16/2020 16:02:41 68.72, -60.81 77.87 10/16/2020 16:01:29 68.77, -61.13 77.90 13.89 72
